Location: 22
(39.7117°N, 89.5929°W)
Time: 12:32:32
(UTC-06:00)

Explorer 11/Cluster Stage 4 - All Passes

Search period start: 07 February 2023 00:00
Search period end: 17 February 2023 00:00
Orbit: 466 x 1243 km, 28.8° (Epoch: 06 February)

Date Brightness Start Highest point End Pass type
(mag) Time Alt. Az. Time Alt. Az. Time Alt. Az.
07 Feb - 02:55:18 10° SSW 03:00:39 25° SSE 03:06:39 10° ESE visible
07 Feb - 04:42:11 10° WSW 04:48:48 36° S 04:56:03 10° ESE visible
07 Feb - 06:30:24 10° WSW 06:37:16 33° S 06:44:19 10° SE visible
07 Feb - 08:20:05 10° WSW 08:25:28 19° SSW 08:30:44 10° SSE daylight
08 Feb - 02:41:52 10° SW 02:47:06 25° SSE 02:53:04 10° ESE visible
08 Feb - 04:28:47 10° WSW 04:35:14 36° S 04:42:24 10° ESE visible
08 Feb - 06:17:00 10° WSW 06:23:40 32° SSW 06:30:38 10° SE visible
08 Feb - 08:06:50 10° WSW 08:11:51 18° SSW 08:16:49 10° SSE daylight
09 Feb - 00:45:42 10° SSE 00:46:08 10° SSE 00:46:36 10° SE night (unlit)
09 Feb - 02:28:28 10° SW 02:33:35 26° SSE 02:39:28 10° ESE visible
09 Feb - 04:15:26 10° WSW 04:21:41 35° S 04:28:44 10° ESE visible
09 Feb - 06:03:39 10° WSW 06:10:04 30° SSW 06:16:53 10° SE visible
09 Feb - 07:53:42 10° WSW 07:58:14 16° SSW 08:02:46 10° S daylight
10 Feb - 00:31:25 10° SSE 00:32:39 11° SSE 00:33:55 10° SE night (unlit)
10 Feb - 02:15:08 10° SW 02:20:04 26° SSE 02:25:49 10° ESE visible
10 Feb - 04:02:08 10° WSW 04:08:08 34° S 04:15:00 10° ESE visible
10 Feb - 05:50:20 10° WSW 05:56:28 28° SSW 06:03:04 10° SE visible
10 Feb - 07:40:42 10° WSW 07:44:36 14° SSW 07:48:32 10° S daylight
11 Feb - 00:17:36 10° SSE 00:19:09 11° SSE 00:20:48 10° SE night (unlit)
11 Feb - 02:01:49 10° SW 02:06:34 26° SSE 02:12:10 10° ESE visible
11 Feb - 03:48:50 10° WSW 03:54:35 33° S 04:01:16 10° ESE visible
11 Feb - 05:37:05 10° WSW 05:42:52 26° SSW 05:49:11 10° SE visible
11 Feb - 07:27:57 10° SW 07:30:58 12° SSW 07:34:02 10° S daylight
12 Feb - 00:03:57 10° S 00:05:41 12° SSE 00:07:32 10° SE night (unlit)
12 Feb - 01:48:31 10° SW 01:53:05 26° SSE 01:58:30 10° ESE visible
12 Feb - 03:35:36 10° WSW 03:41:04 32° S 03:47:29 10° ESE visible
12 Feb - 05:23:52 10° WSW 05:29:17 24° SSW 05:35:14 10° SSE visible
12 Feb - 07:15:50 10° SW 07:17:21 11° SSW 07:18:53 10° SSW daylight
12 Feb - 23:50:24 10° S 23:52:14 12° SSE 23:54:11 10° SE night (unlit)
13 Feb - 01:35:15 10° SW 01:39:37 26° SSE 01:44:49 10° ESE night (unlit)
13 Feb - 03:22:22 10° WSW 03:27:34 30° S 03:33:40 10° SE visible
13 Feb - 05:10:44 10° WSW 05:15:43 21° SSW 05:21:13 10° SSE visible
13 Feb - 23:36:53 10° S 23:38:47 12° SSE 23:40:49 10° SE night (unlit)
14 Feb - 01:22:02 10° SW 01:26:11 25° S 01:31:07 10° ESE night (unlit)
14 Feb - 03:09:11 10° WSW 03:14:04 28° S 03:19:49 10° SE visible
14 Feb - 04:57:41 10° WSW 05:02:09 19° SSW 05:07:06 10° SSE visible
14 Feb - 23:23:27 10° S 23:25:21 13° SSE 23:27:25 10° SE night (unlit)
15 Feb - 01:08:48 10° SW 01:12:45 25° S 01:17:25 10° ESE night (unlit)
15 Feb - 02:56:02 10° WSW 03:00:36 26° S 03:05:57 10° SE visible
15 Feb - 04:44:44 10° SW 04:48:37 16° SSW 04:52:51 10° SSE visible
15 Feb - 23:10:01 10° S 23:11:56 13° SSE 23:14:01 10° SE night (unlit)
16 Feb - 00:55:36 10° SW 00:59:20 24° S 01:03:43 10° ESE night (unlit)
16 Feb - 02:42:55 10° WSW 02:47:07 23° S 02:52:03 10° SE visible
16 Feb - 04:31:58 10° SW 04:35:05 14° SSW 04:38:27 10° S visible
16 Feb - 22:56:37 10° S 22:58:33 13° SSE 23:00:36 10° SE night (unlit)
